Location: Andrest
(43.3200°N, 0.0641°E)
Time: 04:37:16
(UTC+00:00)

Cosmos 2058 Rocket - Visible Passes

Search period start: 15 June 2021 00:00
Search period end: 25 June 2021 00:00
Orbit: 611 x 638 km, 82.5° (Epoch: 14 June)

Date Brightness Start Highest point End Pass type
(mag) Time Alt. Az. Time Alt. Az. Time Alt. Az.
15 Jun 4.0 00:20:41 10° NNW 00:24:46 35° W 00:24:50 35° W visible
15 Jun 3.8 23:01:48 10° N 23:06:00 39° ENE 23:06:34 37° E visible
16 Jun 4.9 00:40:32 10° NW 00:43:39 19° W 00:43:50 19° W visible
16 Jun 2.9 23:20:44 10° N 23:25:12 76° E 23:25:34 71° SE visible
17 Jun 5.2 22:03:27 10° NE 22:05:56 15° ENE 22:07:18 13° E visible
17 Jun 3.3 23:39:58 10° NNW 23:44:18 54° W 23:44:34 53° WSW visible
18 Jun 4.4 22:21:36 10° NNE 22:25:21 26° ENE 22:26:19 24° E visible
18 Jun 4.4 23:59:29 10° NNW 00:03:17 28° W 00:03:36 28° W visible
19 Jun 3.5 22:40:19 10° N 22:44:38 49° ENE 22:45:21 44° ESE visible
20 Jun 5.2 00:19:37 10° NW 00:22:10 15° W 00:22:38 15° W visible
20 Jun 2.9 22:59:22 10° N 23:03:48 85° W 23:04:24 67° S visible
21 Jun 4.9 21:41:38 10° NNE 21:44:38 18° ENE 21:46:11 15° E visible
21 Jun 3.7 23:18:40 10° NNW 23:22:53 43° W 23:23:27 40° WSW visible
22 Jun 4.1 22:00:02 10° N 22:04:01 32° ENE 22:05:15 27° ESE visible
22 Jun 4.7 23:38:21 10° NW 23:41:49 23° W 23:42:32 22° WSW visible
23 Jun 3.2 22:18:53 10° N 22:23:16 61° E 22:24:20 46° SE visible
23 Jun 5.5 23:58:57 10° WNW 00:00:39 12° W 00:01:36 11° W visible
24 Jun 5.3 21:02:13 10° NE 21:03:53 12° ENE 21:05:33 10° E visible
24 Jun 3.2 22:38:00 10° NNW 22:42:24 68° W 22:43:26 49° SSW visible
